Regional Weather Roundup
Issued by NWS

Home | Current Version | Previous Version | Graphics & Text | Print | Product List | Glossary On
Versions: 1 2 3 4 5 6 7 8 9 10 11 12 13 14 15 16 17 18 19 20 21 22 23 24 25 26 27 28 29 30 31 32 33 34 35 36 37 38 39 40 41 42 43 44 45 46 47 48 49 50
000
ASUS43 KBIS 210610
RWRND

NORTH DAKOTA REGIONAL WEATHER ROUNDUP
NATIONAL WEATHER SERVICE BISMARCK ND
100 AM CDT TUE OCT 21 2014

NOTE: "FAIR" INDICATES FEW OR NO CLOUDS BELOW 12,000 FEET WITH NO
SIGNIFICANT WEATHER AND/OR OBSTRUCTIONS TO VISIBILITY.


NDZ001>003-009>011-017-210700-
NORTHWEST NORTH DAKOTA

CITY           SKY/WX    TMP DP  RH WIND       PRES   REMARKS
WILLISTON      CLEAR     54  41  61 CALM      29.81F
6HR MIN TEMP:  50; 6HR MAX TEMP:  71;

MINOT          CLEAR     46  35  65 E6        29.87F
MINOT AFB      CLEAR     44  37  75 SE12      29.86S
$$

NDZ018>021-031>035-040>046-210700-
SOUTHWEST NORTH DAKOTA

CITY           SKY/WX    TMP DP  RH WIND       PRES   REMARKS
BISMARCK       CLEAR     52  34  50 E10       29.92F
6HR MIN TEMP:  48; 6HR MAX TEMP:  55;

DICKINSON      CLEAR     50  38  63 SE14      29.83F
GARRISON         N/A     46  37  71 E9        29.88F
6HR MIN TEMP:  45; 6HR MAX TEMP:  60;

HETTINGER ARPT PTCLDY    48  38  68 E8        29.86F
$$

NDZ004>008-012>016-024-026-027-054-210700-
NORTHEAST NORTH DAKOTA

CITY           SKY/WX    TMP DP  RH WIND       PRES   REMARKS
GRAND FORKS    CLEAR     43  37  79 SE12      30.05S
GRND FRKS AFB  CLEAR     41  39  92 SE10      30.05S
DEVILS LAKE    CLEAR     46  37  71 SE12      29.97F
$$

NDZ022-023-025-028>030-036>039-047>053-210700-
SOUTHEAST NORTH DAKOTA

CITY           SKY/WX    TMP DP  RH WIND       PRES   REMARKS
FARGO          CLEAR     46  37  71 E10       30.04F
6HR MIN TEMP:  45; 6HR MAX TEMP:  55;

JAMESTOWN      CLEAR     46  39  76 SE9       29.99F
$$




USA.gov is the U.S. government's official web portal to all federal, state and local government web resources and services.